Back to catalog

STARLINK-5129

AliveCommunicationsVLEO
NORAD 54004·PAYLOAD·🇺🇸 United States

Launched Oct 5, 2022 from Vandenberg Space Force Base

Loading…

Next Passes (next 24 hours)

TLE

FreshSource: CelesTrak SupGP

Epoch: Sep 14, 2026, 14:37 UTC

1 54004C 22125AS  26257.60951389  .00688930  00000+0  34874-1 0  2575
2 54004  53.1595  84.9432 0001260  92.3601 118.1527 15.16156221    19

Track STARLINK-5129 in real time with AllMySat

Download on the App Store